Tracking 17752 objects as of 29-June-2016
HD Live streaming from Space Station
objects crossing your sky now

SL-16 DEB

Track SL-16 DEB now!
10-day predictions


NORAD ID: 36031
Int'l Code: 1996-051N
Perigee: 759.9 km
Apogee: 776.7 km
Inclination: 70.9 °
Period: 100.1 minutes
Semi major axis: 7139 km
RCS: 0.0057 m2 (small)
Launch date: September 4, 1996
Source: Commonwealth of Independent States (former USSR) (CIS)
Launch site: TYURATAM MISSILE AND SPACE COMPLEX (TTMTR)

Note: This is SATELLITE DEBRIS
Your satellite tracking list
Your tracking list is empty





NASA's NSSDC Master Catalog

Two Line Element Set (TLE):
1 36031U 96051N   16180.57229291  .00002430  00000-0  79967-3 0  9997
2 36031  70.8563 357.4794 0011732 308.1784 109.4371 14.39189487348350
Source of the keplerian elements: AFSPC

N2YO: 952